Вернуться в каталог

FENGYUN 1C DEB

АктивенPO
NORAD 30946·DEBRIS·🇨🇳 China

Запущен May 10, 1999 с Taiyuan Satellite Launch Center

Loading…

Ближайшие Пролёты (ближайшие 24 часа)

TLE

СвежийSource: Space-Track

Эпоха: Sep 14, 2026, 08:21 UTC

1 30946U 99025BAL 26257.34793135  .00001293  00000-0  33589-3 0  9990
2 30946  99.0700  37.3275 0088496  90.0170 300.8608 14.49293682 23264

Отслеживайте FENGYUN 1C DEB в реальном времени с AllMySat

Download on the App Store